TimeEDT,TemperatureF,Dew PointF,Humidity,Sea Level PressureIn,VisibilityMPH,Wind Direction,Wind SpeedMPH,Gust SpeedMPH,PrecipitationIn,Events,Conditions,WindDirDegrees,DateUTC
12:53 AM,63.0,55.0,75,29.85,10.0,NNW,5.8,-,N/A,,Clear,340,2013-06-15 04:53:00
1:53 AM,64.0,55.9,75,29.86,10.0,NW,5.8,-,N/A,,Clear,320,2013-06-15 05:53:00
2:53 AM,60.1,54.0,80,29.87,10.0,Calm,Calm,-,N/A,,Clear,0,2013-06-15 06:53:00
3:53 AM,63.0,55.0,75,29.88,10.0,NNW,5.8,-,N/A,,Clear,330,2013-06-15 07:53:00
4:53 AM,63.0,54.0,72,29.89,10.0,NW,5.8,-,N/A,,Clear,320,2013-06-15 08:53:00
5:53 AM,62.1,54.0,75,29.91,10.0,NW,4.6,-,N/A,,Clear,320,2013-06-15 09:53:00
6:53 AM,64.0,55.0,73,29.92,10.0,WNW,3.5,-,N/A,,Partly Cloudy,300,2013-06-15 10:53:00
7:53 AM,66.9,54.0,63,29.94,10.0,NW,5.8,-,N/A,,Partly Cloudy,320,2013-06-15 11:53:00
8:53 AM,70.0,54.0,57,29.96,10.0,Variable,4.6,-,N/A,,Partly Cloudy,0,2013-06-15 12:53:00
9:53 AM,72.0,54.0,53,29.97,10.0,NW,6.9,-,N/A,,Partly Cloudy,310,2013-06-15 13:53:00
10:53 AM,75.0,48.0,38,29.96,10.0,NW,8.1,-,N/A,,Clear,310,2013-06-15 14:53:00
11:53 AM,75.9,48.0,37,29.96,10.0,WNW,4.6,-,N/A,,Clear,300,2013-06-15 15:53:00
12:53 PM,75.9,48.9,38,29.96,10.0,WNW,6.9,-,N/A,,Partly Cloudy,300,2013-06-15 16:53:00
1:53 PM,77.0,48.9,37,29.95,10.0,West,5.8,-,N/A,,Partly Cloudy,280,2013-06-15 17:53:00
2:53 PM,79.0,46.9,32,29.94,10.0,Variable,6.9,-,N/A,,Clear,0,2013-06-15 18:53:00
3:53 PM,77.0,52.0,42,29.93,10.0,SW,9.2,-,N/A,,Partly Cloudy,220,2013-06-15 19:53:00
4:53 PM,75.9,54.0,46,29.92,10.0,South,6.9,-,N/A,,Partly Cloudy,190,2013-06-15 20:53:00
5:53 PM,75.0,52.0,44,29.92,10.0,South,4.6,-,N/A,,Clear,190,2013-06-15 21:53:00
6:53 PM,73.9,54.0,50,29.92,10.0,SSW,4.6,-,N/A,,Clear,210,2013-06-15 22:53:00
7:53 PM,72.0,57.0,59,29.92,10.0,SW,3.5,-,N/A,,Clear,220,2013-06-15 23:53:00
8:53 PM,73.0,53.1,49,29.93,10.0,Variable,3.5,-,N/A,,Clear,0,2013-06-16 00:53:00
9:53 PM,66.9,59.0,76,29.95,10.0,South,8.1,-,N/A,,Clear,190,2013-06-16 01:53:00
10:53 PM,68.0,59.0,73,29.96,10.0,WSW,5.8,-,N/A,,Clear,240,2013-06-16 02:53:00
11:53 PM,64.9,59.0,81,29.97,10.0,Calm,Calm,-,N/A,,Clear,0,2013-06-16 03:53:00